EW9032 Weather Reports


time (UTC)temp
C
wind
direction
speed
KPH
gust
KPH
rain 1hr
cm
rain 24hr
cm
rain mn
cm
humidity
%
barometer
mb
20260504174704 14 36 12.9 29.0 0.00 0.33 0.00 46 1007.1
20260504174204 13 13 17.7 29.0 0.00 0.33 0.00 44 1007.2
20260504173704 14 31 14.5 32.2 0.00 0.33 0.00 45 1007.0
20260504173204 13 33 14.5 24.1 0.00 0.33 0.00 45 1006.8
20260504172704 13 45 14.5 32.2 0.00 0.33 0.00 46 1006.7
20260504171704 13 38 20.9 32.2 0.00 0.33 0.00 44 1007.0
20260504171204 13 34 14.5 32.2 0.00 0.33 0.00 43 1007.0
20260504170204 14 20 14.5 27.4 0.00 0.33 0.00 45 1006.9
20260504150204 12 29 19.3 27.4 0.00 0.33 0.00 49 1005.9
20260504141204 11 39 19.3 29.0 0.00 0.33 0.00 63 1005.5
20260504140704 11 42 14.5 25.7 0.00 0.33 0.00 65 1005.5
20260504140204 11 32 12.9 29.0 0.00 0.33 0.00 64 1005.6
20260504130704 11 280 4.8 11.3 0.00 0.33 0.00 59 1004.3
20260504130204 10 256 8.0 22.5 0.00 0.33 0.00 58 1003.9
20260504120203 10 201 8.0 14.5 0.00 0.33 0.00 60 1002.1
20260504110203 7 217 8.0 8.0 0.00 0.33 0.00 71 1002.2
20260504081706 8 225 8.0 9.7 0.00 0.33 0.00 74 1003.0
20260504081205 8 226 8.0 11.3 0.00 0.33 0.00 75 1003.0
20260504080705 8 232 8.0 9.7 0.00 0.33 0.00 76 1003.0
20260504080205 8 232 6.4 8.0 0.00 0.33 0.00 76 1003.1
20260504060205 11 212 1.6 3.2 0.00 0.33 0.00 70 1003.6
20260504045706 8 188 1.6 4.8 0.00 0.33 0.33 79 1004.1
20260504045205 8 188 1.6 3.2 0.00 0.33 0.33 80 1004.0
20260504044706 8 188 0.0 1.6 0.00 0.33 0.33 80 1004.1
20260504044205 8 188 1.6 3.2 0.00 0.33 0.33 81 1004.2
20260504043705 8 188 1.6 3.2 0.00 0.33 0.33 81 1004.2
20260504042705 9 188 1.6 3.2 0.00 0.33 0.33 81 1004.2
20260504042205 9 188 0.0 1.6 0.00 0.33 0.33 81 1004.3
20260504041705 9 188 0.0 1.6 0.00 0.33 0.33 81 1004.3
20260504041206 9 188 0.0 3.2 0.00 0.33 0.33 81 1004.3
20260504040705 9 188 3.2 4.8 0.00 0.33 0.33 81 1004.4
20260504040206 9 188 1.6 3.2 0.00 0.33 0.33 81 1004.3
20260504035705 10 188 0.0 1.6 0.00 0.33 0.33 81 1004.3
20260504034705 10 188 0.0 1.6 0.00 0.33 0.33 80 1004.5
20260504034205 10 188 0.0 1.6 0.00 0.33 0.33 80 1004.4
20260504033205 10 188 0.0 1.6 0.00 0.33 0.33 78 1004.4
20260504032705 10 188 0.0 3.2 0.00 0.33 0.33 77 1004.5
20260504032205 11 188 1.6 3.2 0.00 0.33 0.33 76 1004.5
20260504031705 11 188 1.6 3.2 0.00 0.33 0.33 74 1004.5
20260504031205 11 188 0.0 1.6 0.00 0.33 0.33 73 1004.5
20260504030205 12 187 1.6 4.8 0.00 0.33 0.33 70 1004.5
20260504025705 12 186 1.6 4.8 0.00 0.33 0.33 69 1004.6
20260504025205 12 186 3.2 4.8 0.00 0.33 0.33 68 1004.6
20260504024206 12 186 1.6 4.8 0.00 0.33 0.33 69 1004.5
20260504023205 12 186 4.8 9.7 0.00 0.33 0.33 68 1004.6
20260504022705 12 164 6.4 9.7 0.00 0.33 0.33 69 1004.5
20260504022205 12 132 1.6 4.8 0.00 0.33 0.33 68 1004.5
20260504021705 12 132 1.6 4.8 0.00 0.33 0.33 68 1004.5
20260504021205 12 132 0.0 1.6 0.00 0.33 0.33 71 1004.4
20260504020705 13 132 1.6 1.6 0.00 0.33 0.33 69 1004.4
20260504020205 13 132 1.6 3.2 0.00 0.33 0.33 68 1004.4
20260504015705 13 132 3.2 4.8 0.00 0.33 0.33 68 1004.4
20260504015205 13 132 1.6 4.8 0.00 0.33 0.33 68 1004.4
20260504014705 13 130 3.2 4.8 0.00 0.33 0.33 68 1004.3
20260504014204 13 130 1.6 8.0 0.00 0.33 0.33 69 1004.4
20260504013705 13 130 3.2 8.0 0.00 0.33 0.33 69 1004.4
20260504013205 13 130 3.2 4.8 0.00 0.33 0.33 70 1004.4
20260504012704 13 130 3.2 4.8 0.00 0.33 0.33 70 1004.5
20260504012205 13 130 3.2 11.3 0.00 0.33 0.33 72 1004.6
20260504011705 13 140 3.2 4.8 0.00 0.33 0.33 73 1004.7
20260504011205 13 90 4.8 11.3 0.00 0.33 0.33 76 1004.7
20260504010705 13 89 8.0 14.5 0.00 0.33 0.33 77 1004.7
20260504010205 13 85 12.9 19.3 0.00 0.33 0.33 78 1004.6
20260504005205 13 84 14.5 20.9 0.00 0.33 0.33 78 1004.6
20260504004204 13 86 6.4 19.3 0.00 0.33 0.33 78 1005.2
20260504003705 13 83 11.3 19.3 0.00 0.33 0.33 77 1005.4
20260504003205 13 76 8.0 19.3 0.00 0.33 0.33 74 1005.7
20260504002705 14 88 11.3 20.9 0.00 0.33 0.33 70 1005.9
20260504001206 14 78 3.2 4.8 0.05 0.33 0.33 72 1006.0
20260504000705 14 78 3.2 11.3 0.05 0.33 0.33 71 1006.1
20260504000205 13 25 3.2 9.7 0.08 0.33 0.33 72 1006.2
20260503235705 13 0 8.0 16.1 0.18 0.33 0.33 74 1006.2
20260503234704 12 20 4.8 14.5 0.33 0.33 0.33 77 1006.2
20260503234204 12 8 8.0 16.1 0.33 0.33 0.33 76 1006.3
20260503233705 12 31 9.7 19.3 0.33 0.33 0.33 76 1006.2
20260503232704 12 17 16.1 32.2 0.33 0.33 0.33 75 1007.6
20260503231705 12 298 17.7 48.3 0.30 0.30 0.30 75 1008.2
20260503231204 12 275 22.5 49.9 0.28 0.28 0.28 75 1007.9
20260503230204 12 289 29.0 64.4 0.25 0.25 0.25 75 1007.1
20260503225704 13 287 29.0 53.1 0.15 0.15 0.15 68 1006.6
20260503224704 19 318 27.4 62.8 0.00 0.00 0.00 38 1006.0
20260503224205 22 229 9.7 16.1 0.00 0.00 0.00 26 1004.9
20260503223705 22 25 3.2 9.7 0.00 0.00 0.00 26 1003.8
20260503223204 22 326 3.2 9.7 0.00 0.00 0.00 26 1003.6
20260503222704 22 291 3.2 4.8 0.00 0.00 0.00 24 1003.7
20260503222205 22 276 1.6 4.8 0.00 0.00 0.00 24 1003.8
20260503221705 22 276 1.6 11.3 0.00 0.00 0.00 25 1003.9
20260503221205 22 296 3.2 11.3 0.00 0.00 0.00 25 1004.0
20260503220205 23 123 1.6 8.0 0.00 0.00 0.00 24 1004.2
20260503215705 23 150 4.8 19.3 0.00 0.00 0.00 24 1004.3
20260503215205 23 38 3.2 8.0 0.00 0.00 0.00 25 1004.4
20260503214705 23 37 4.8 14.5 0.00 0.00 0.00 25 1004.5
20260503213204 23 53 8.0 14.5 0.00 0.00 0.00 25 1004.9
20260503212705 23 162 3.2 8.0 0.00 0.00 0.00 25 1005.0
20260503212205 23 188 4.8 12.9 0.00 0.00 0.00 25 1005.2
20260503211704 23 215 1.6 12.9 0.00 0.00 0.00 25 1005.3
20260503211205 23 202 4.8 14.5 0.00 0.00 0.00 25 1005.4
20260503210704 23 187 4.8 9.7 0.00 0.00 0.00 26 1005.5
20260503205705 22 141 1.6 14.5 0.00 0.00 0.00 26 1005.8
20260503205205 22 138 4.8 9.7 0.00 0.00 0.00 27 1005.9
20260503204704 22 198 8.0 14.5 0.00 0.00 0.00 26 1006.1
20260503204205 22 273 4.8 19.3 0.00 0.00 0.00 26 1006.3
20260503203205 22 37 8.0 11.3 0.00 0.00 0.00 27 1006.5
20260503202705 22 53 4.8 8.0 0.00 0.00 0.00 27 1006.7
20260503202205 22 251 4.8 11.3 0.00 0.00 0.00 26 1006.8
20260503201704 22 288 4.8 19.3 0.00 0.00 0.00 26 1006.9
20260503201204 22 274 4.8 24.1 0.00 0.00 0.00 27 1006.9
20260503200705 22 288 9.7 16.1 0.00 0.00 0.00 26 1006.9
20260503200204 21 312 3.2 14.5 0.00 0.00 0.00 27 1007.0
20260503195705 21 16 4.8 8.0 0.00 0.00 0.00 28 1007.2
20260503195204 21 322 3.2 11.3 0.00 0.00 0.00 28 1007.3
20260503194705 21 309 4.8 19.3 0.00 0.00 0.00 28 1007.5
20260503194205 21 258 6.4 16.1 0.00 0.00 0.00 29 1007.5
20260503193704 21 212 8.0 19.3 0.00 0.00 0.00 28 1007.6
20260503193204 21 210 11.3 20.9 0.00 0.00 0.00 28 1007.7
20260503192705 21 201 11.3 19.3 0.00 0.00 0.00 28 1007.7
20260503192204 21 264 11.3 27.4 0.00 0.00 0.00 28 1007.8
20260503191704 21 277 8.0 14.5 0.00 0.00 0.00 28 1007.9
20260503191204 21 284 6.4 24.1 0.00 0.00 0.00 28 1008.0
20260503190705 21 262 8.0 19.3 0.00 0.00 0.00 28 1008.1
20260503190204 21 311 8.0 16.1 0.00 0.00 0.00 29 1008.1
20260503185204 21 325 3.2 14.5 0.00 0.00 0.00 29 1008.4
20260503184204 20 320 3.2 11.3 0.00 0.00 0.00 31 1008.7
20260503183705 20 298 4.8 12.9 0.00 0.00 0.00 30 1008.9
20260503183205 20 278 8.0 19.3 0.00 0.00 0.00 30 1009.0
20260503182704 20 209 4.8 11.3 0.00 0.00 0.00 31 1009.0
20260503182204 20 256 8.0 19.3 0.00 0.00 0.00 31 1009.2
20260503181705 20 300 9.7 19.3 0.00 0.00 0.00 30 1009.1
20260503181204 21 348 4.8 8.0 0.00 0.00 0.00 29 1009.2
20260503180705 20 313 4.8 11.3 0.00 0.00 0.00 29 1009.3
20260503180205 20 279 6.4 12.9 0.00 0.00 0.00 30 1009.4
20260503175204 20 309 8.0 14.5 0.00 0.00 0.00 30 1009.5